Date,TemperatureHighF,TemperatureAvgF,TemperatureLowF,DewpointHighF,DewpointAvgF,DewpointLowF,HumidityHigh,HumidityAvg,HumidityLow,PressureMaxIn,PressureMinIn,WindSpeedMaxMPH,WindSpeedAvgMPH,GustSpeedMaxMPH,PrecipitationSumIn
2013-2-1,12,6,-1,2,-10,-17,62,46,36,29.71,29.52,23,8,23,0.00
2013-2-2,19,13,7,10,0,-9,70,56,43,29.56,29.42,17,6,17,0.00
2013-2-3,22,16,8,7,1,-8,62,52,43,29.45,29.34,22,6,22,0.00
2013-2-4,29,20,12,20,10,-3,73,63,50,29.44,29.30,18,5,18,0.00
2013-2-5,29,22,10,20,10,-6,69,60,48,29.49,29.20,20,5,20,0.00
2013-2-6,37,28,13,25,15,3,70,59,44,29.65,29.50,11,3,11,0.02
2013-2-7,36,33,29,30,28,24,85,79,69,29.53,29.29,14,3,14,0.05
2013-2-8,29,25,22,24,18,14,83,73,67,29.80,29.38,0,0,0,0.00
2013-2-9,38,24,18,26,16,10,76,69,57,29.80,29.64,11,0,11,0.00
2013-2-14,55,54,53,50,48,47,85,80,78,29.83,29.78,7,4,7,3.70
2013-2-15,57,52,49,51,50,48,99,91,76,29.91,29.75,7,2,7,0.35
2013-2-16,58,24,10,56,8,-10,97,52,27,29.97,29.71,14,4,14,0.56
2013-2-17,33,23,8,12,0,-10,48,36,22,29.99,29.79,15,5,15,0.00
2013-2-18,51,39,29,42,28,11,86,63,47,29.79,29.18,22,9,22,0.30
2013-2-19,34,17,10,29,4,-9,81,56,41,29.93,29.28,23,2,23,0.00
2013-2-20,23,15,8,5,-2,-10,54,46,41,30.14,29.93,20,8,20,0.00
2013-2-21,29,25,18,21,15,3,74,66,52,30.18,29.84,19,8,19,0.00
2013-2-22,35,30,26,28,23,17,78,75,63,29.84,29.58,18,6,18,0.01
2013-2-23,35,28,21,22,15,9,75,60,43,29.73,29.64,15,5,15,0.01
2013-2-24,50,29,18,26,15,7,69,57,37,29.93,29.72,11,3,11,0.00
2013-2-25,48,33,20,28,21,12,74,62,45,29.96,29.81,11,3,11,0.00
2013-2-26,37,34,32,29,26,22,86,73,57,29.80,29.35,29,11,29,0.00
2013-2-27,37,34,32,32,29,28,86,84,79,29.50,29.32,22,4,22,0.12
2013-2-28,36,32,27,29,24,16,85,71,59,29.87,29.50,25,12,25,0.06